Location: St. Andrews
(45.0670°N, 67.0330°W)
Time: 15:22:42
(UTC-03:00)

Amateur Radio Satellites - All Passes

Search period start: 28 July 2016 14:52
Search period end: 29 July 2016 14:52
Location: St. Andrews, 45.0670°N, 67.0330°W

Satellite Date Start Highest point End Downlink Frequencies (MHz)
Time Altitude Azimuth
SPROUT 28 Jul 14:55:20 14:58:51 24° 294° (WNW) 15:02:21 437.525
GONETS M04 28 Jul 15:00:37 15:07:48 30° 82° (E) 15:15:00
Gurwin Techsat 1B 28 Jul 15:06:01 15:11:12 54° 260° (W) 15:16:26 435.225
BEESAT 28 Jul 15:08:30 15:12:23 24° 94° (E) 15:16:15 436.000
AO-85 28 Jul 15:11:02 15:16:20 61° 309° (NW) 15:21:22 145.980
VELOX 1 28 Jul 15:11:40 15:12:43 11° 302° (WNW) 15:13:46 145.980
ITAMSAT 1 28 Jul 15:12:25 15:17:35 65° 72° (ENE) 15:22:47 435.822/435.867
Oscar 19 28 Jul 15:16:15 15:20:01 21° 268° (W) 15:23:51 437.125/150
AIST 1 28 Jul 15:31:07 15:33:38 15° 293° (WNW) 15:36:10
ITUPSAT 1 28 Jul 15:32:06 15:36:36 40° 98° (E) 15:41:04 437.325
CUSAT 1 28 Jul 15:43:12 15:46:05 43° 262° (W) 15:49:37 437.405
TISAT 1 28 Jul 15:45:40 15:49:19 28° 293° (WNW) 15:52:56 437.305
AO-7 28 Jul 15:52:39 16:01:00 77° 68° (ENE) 16:09:24 29.400- 29.500
DANDE 28 Jul 16:19:22 16:21:55 49° 262° (W) 16:24:42 436.750
SWISSCUBE 28 Jul 16:24:27 16:29:08 57° 288° (WNW) 16:33:46 437.505
SO-50 28 Jul 16:26:09 16:30:29 36° 45° (NE) 16:34:42 436.795
KKS-1 28 Jul 16:29:52 16:33:09 20° 93° (E) 16:36:25 437.445
Cosmos 2499 28 Jul 16:37:07 16:46:01 83° 97° (E) 16:54:40 435.465 / 435.565
BEESAT 28 Jul 16:45:51 16:50:18 40° 291° (WNW) 16:54:43 436.000
HORYU 2 28 Jul 16:53:15 16:57:20 36° 68° (ENE) 17:01:28 437.375
ITAMSAT 1 28 Jul 16:54:03 16:57:31 18° 269° (W) 17:00:59 435.822/435.867
AO-85 28 Jul 16:54:41 16:57:47 16° 329° (NNW) 17:00:45 145.980
GONETS M04 28 Jul 16:55:23 17:03:58 64° 283° (WNW) 17:12:41
PHONESAT 2.4 28 Jul 16:57:31 16:58:45 12° 154° (SSE) 16:59:59 2401.200-2431.200
RS-15 28 Jul 16:58:10 17:10:25 71° 242° (WSW) 17:22:29 29.354- 29.394
STARS 28 Jul 17:04:29 17:08:00 22° 94° (E) 17:11:30 437.465
CUTE-I 28 Jul 17:05:11 17:07:02 12° 54° (NE) 17:08:53 437.470
ITUPSAT 1 28 Jul 17:10:21 17:14:15 26° 296° (WNW) 17:18:08 437.325
MOZHAYETS 4 28 Jul 17:13:43 17:18:16 60° 101° (E) 17:22:46
NOAA 15 28 Jul 17:18:30 17:22:08 19° 59° (ENE) 17:25:45 137.62
LilacSat-2 28 Jul 17:47:40 17:50:08 16° 64° (ENE) 17:52:37 437.200
AO-7 28 Jul 17:47:57 17:54:34 25° 268° (W) 18:01:13 29.400- 29.500
NOAA 18 28 Jul 17:50:13 17:54:55 29° 63° (ENE) 17:59:37 137.9125
BRITE-PL 28 Jul 17:57:32 18:01:21 37° 70° (ENE) 18:05:14 437.365/2234.400
BEESAT 3 28 Jul 18:03:56 18:05:59 14° 110° (ESE) 18:08:03 437.485
KKS-1 28 Jul 18:05:38 18:09:56 45° 290° (WNW) 18:14:12 437.445
SO-50 28 Jul 18:06:47 18:10:55 33° 244° (WSW) 18:14:56 436.795
Cubesat XI-IV 28 Jul 18:17:55 18:23:00 45° 68° (ENE) 18:28:07 437.490
HORYU 2 28 Jul 18:30:17 18:33:58 25° 265° (W) 18:37:41 437.375
PHONESAT 2.4 28 Jul 18:31:57 18:34:41 29° 170° (S) 18:37:24 2401.200-2431.200
Cosmos 2499 28 Jul 18:33:12 18:40:08 25° 297° (WNW) 18:46:55 435.465 / 435.565
CUBESAT XI-V 28 Jul 18:37:02 18:41:34 56° 100° (E) 18:46:06 437.345
DOVE 4 28 Jul 18:37:53 18:41:17 22° 64° (ENE) 18:44:50 437.250
STARS 28 Jul 18:40:21 18:44:29 39° 291° (WNW) 18:48:36 437.465
CUTE-I 28 Jul 18:40:47 18:46:08 71° 73° (ENE) 18:51:30 437.470
GOMX 1 28 Jul 18:51:37 18:55:44 62° 74° (ENE) 19:00:07 467.674
MOZHAYETS 4 28 Jul 18:52:05 18:54:57 17° 299° (WNW) 18:57:50
NOAA 15 28 Jul 18:56:11 19:01:23 66° 258° (WSW) 19:06:38 137.62
GONETS M04 28 Jul 18:58:29 19:02:54 15° 307° (NW) 19:07:21
YUBILEINY 28 Jul 19:04:37 19:07:41 12° 49° (NE) 19:10:44 435.215
RS-15 28 Jul 19:13:17 19:20:32 18° 265° (W) 19:27:47 29.354- 29.394
LilacSat-2 28 Jul 19:20:23 19:24:06 43° 261° (W) 19:27:51 437.200
NOAA 18 28 Jul 19:30:03 19:35:21 46° 261° (W) 19:40:41 137.9125
CANX-2 28 Jul 19:30:27 19:33:37 20° 65° (ENE) 19:36:46 2200.000
BRITE-PL 28 Jul 19:37:03 19:40:03 19° 268° (W) 19:43:07 437.365/2234.400
HO-68 28 Jul 19:38:12 19:44:52 43° 63° (ENE) 19:51:33 435.675
CUBEBUG 2 28 Jul 19:38:54 19:39:07 10° 56° (NE) 19:39:21 437.445
BEESAT 3 28 Jul 19:39:19 19:43:11 61° 308° (NW) 19:47:07 437.485
PCSat 28 Jul 19:42:21 19:47:34 51° 115° (ESE) 19:52:49 145.827
CUTE 1.7 + AOD 2 28 Jul 19:43:15 19:46:40 24° 66° (ENE) 19:50:06 437.475
BEESAT 2 28 Jul 19:48:27 19:52:25 88° 311° (NW) 19:56:25 435.950
Cubesat XI-IV 28 Jul 19:58:46 20:03:15 27° 266° (W) 20:07:46 437.490
PHONESAT 2.4 28 Jul 20:08:01 20:10:49 32° 187° (S) 20:13:38 2401.200-2431.200
CINEMA 3 28 Jul 20:14:02 20:18:32 62° 73° (ENE) 20:23:18 145.822/145.860
DOVE 4 28 Jul 20:14:40 20:18:44 39° 264° (W) 20:23:03 437.250
CUBESAT XI-V 28 Jul 20:15:27 20:18:33 18° 298° (WNW) 20:21:38 437.345
O/OREOS (USA 219) 28 Jul 20:18:29 20:21:38 19° 101° (E) 20:24:48 437.305
SEEDS 28 Jul 20:18:53 20:22:50 39° 70° (ENE) 20:26:46 437.485
CUTE-I 28 Jul 20:23:20 20:26:42 17° 270° (W) 20:30:07 437.470
AIST 2 28 Jul 20:27:17 20:28:59 12° 109° (ESE) 20:30:40 435.215
COMPASS 1 28 Jul 20:27:49 20:31:36 34° 70° (ENE) 20:35:25 437.405
Cosmos 2491 28 Jul 20:32:25 20:37:13 16° 74° (ENE) 20:42:00 435.465 / 435.565
GOMX 1 28 Jul 20:32:35 20:34:24 12° 272° (W) 20:36:15 467.674
FUNcube-1 28 Jul 20:41:38 20:44:42 18° 63° (ENE) 20:47:46 145.935
ZACube-1 28 Jul 20:43:14 20:46:30 20° 63° (ENE) 20:49:48 437.345
STRAND 1 28 Jul 20:43:50 20:48:56 64° 102° (ESE) 20:53:58 437.568
UWE-3 28 Jul 20:45:27 20:49:26 30° 67° (ENE) 20:53:29 435.000/436.395/437.385
ISS 28 Jul 20:48:01 20:49:47 14° 133° (SE) 20:51:34 145.825
AAUSAT CUBESAT 2 28 Jul 20:54:14 20:58:16 53° 73° (ENE) 21:02:19 437.432
YUBILEINY 28 Jul 20:58:22 21:07:01 54° 74° (ENE) 21:15:34 435.215
AUBIESAT-1 28 Jul 21:03:35 21:05:33 13° 53° (NE) 21:07:35 437.475
CANX-2 28 Jul 21:05:09 21:09:12 41° 262° (W) 21:13:16 2200.000
DELFI C3 28 Jul 21:05:44 21:07:36 13° 62° (ENE) 21:09:28 145.870
CUBEBUG 2 28 Jul 21:10:14 21:14:50 73° 75° (ENE) 21:19:35 437.445
CUTE 1.7 + AOD 2 28 Jul 21:18:27 21:22:21 34° 263° (W) 21:26:16 437.475
BEESAT 3 28 Jul 21:20:22 21:21:41 11° 328° (NNW) 21:23:01 437.485
Oscar 11 28 Jul 21:20:38 21:24:45 43° 71° (ENE) 21:28:53 145.826/435.025
HO-68 28 Jul 21:25:50 21:32:34 42° 262° (W) 21:39:22 435.675
PCSat 28 Jul 21:26:28 21:31:13 30° 315° (NW) 21:35:59 145.827
BEESAT 2 28 Jul 21:28:35 21:30:51 15° 325° (NW) 21:33:07 435.950
Cosmos 2504 28 Jul 21:40:31 21:47:48 34° 67° (ENE) 21:54:36 435.465 / 435.565
HUMSAT D 28 Jul 21:43:42 21:46:39 18° 64° (ENE) 21:49:36 437.325/437.525
PHONESAT 2.4 28 Jul 21:44:53 21:46:50 16° 203° (SSW) 21:48:46 2401.200-2431.200
CINEMA 3 28 Jul 21:53:28 21:56:10 15° 272° (W) 21:58:56 145.822/145.860
SEEDS 28 Jul 21:55:34 21:58:41 20° 268° (W) 22:01:48 437.485
O/OREOS (USA 219) 28 Jul 21:56:23 22:00:41 46° 299° (WNW) 22:05:01 437.305
AO-85 28 Jul 22:01:23 22:05:26 31° 43° (NE) 22:09:09 145.980
AIST 2 28 Jul 22:02:46 22:06:52 74° 306° (NW) 22:11:02 435.215
COMPASS 1 28 Jul 22:03:59 22:07:15 22° 267° (W) 22:10:32 437.405
M-CUBED/EXP-1 PRIME 28 Jul 22:10:52 22:14:42 73° 69° (ENE) 22:18:54 437.505
FUNcube-1 28 Jul 22:16:02 22:20:30 56° 260° (W) 22:25:02 145.935
ZACube-1 28 Jul 22:17:59 22:22:25 50° 261° (W) 22:26:55 437.345
UWE-3 28 Jul 22:21:42 22:25:49 32° 265° (W) 22:30:01 435.000/436.395/437.385
ISS 28 Jul 22:22:32 22:25:48 88° 329° (NNW) 22:29:04 145.825
Cosmos 2491 28 Jul 22:23:50 22:32:31 78° 95° (E) 22:41:15 435.465 / 435.565
STRAND 1 28 Jul 22:24:05 22:27:36 19° 300° (WNW) 22:31:08 437.568
PRISM 28 Jul 22:24:33 22:28:40 83° 287° (WNW) 22:32:46 437.425
UNISAT 6 28 Jul 22:28:19 22:29:19 11° 87° (E) 22:30:17 437.425
AAUSAT CUBESAT 2 28 Jul 22:31:47 22:34:05 14° 270° (W) 22:36:23 437.432
AUBIESAT-1 28 Jul 22:35:29 22:39:22 73° 252° (WSW) 22:43:36 437.475
DELFI C3 28 Jul 22:38:03 22:41:59 61° 259° (W) 22:45:55 145.870
ESTCUBE 1 28 Jul 22:47:37 22:50:31 17° 62° (ENE) 22:53:25 437.505/2401.250
CUBEBUG 2 28 Jul 22:49:49 22:52:00 13° 272° (W) 22:54:14 437.445
CUBEBUG 1 28 Jul 22:54:37 22:56:37 13° 60° (ENE) 22:58:39 437.445
YUBILEINY 28 Jul 22:55:39 23:03:30 37° 276° (W) 23:11:17 435.215
Oscar 11 28 Jul 22:57:57 23:01:05 19° 268° (W) 23:04:14 145.826/435.025
VELOX 1 28 Jul 22:57:59 22:59:59 13° 59° (ENE) 23:01:59 145.980
ANTELSAT 28 Jul 23:04:23 23:08:13 25° 93° (E) 23:11:59 437.575/2403.000
HUMSAT D 28 Jul 23:17:45 23:21:55 48° 261° (W) 23:26:07 437.325/437.525
50 SAT 28 Jul 23:33:02 23:36:00 24° 68° (ENE) 23:38:59 437.505
Cosmos 2504 28 Jul 23:33:42 23:41:35 54° 270° (W) 23:48:53 435.465 / 435.565
DX 1 28 Jul 23:34:57 23:38:16 22° 64° (ENE) 23:41:36 434.975-435.025
AISAT 28 Jul 23:40:40 23:44:38 34° 68° (ENE) 23:48:37 437.250
AO-85 28 Jul 23:41:55 23:45:54 34° 244° (WSW) 23:49:34 145.980
AIST 2 28 Jul 23:43:59 23:46:06 14° 327° (NNW) 23:48:14 435.215
TIGRISAT 28 Jul 23:45:02 23:49:40 61° 101° (E) 23:54:08 435.000
UKube-1 28 Jul 23:45:15 23:48:35 22° 64° (ENE) 23:51:55 .
POPSAT HIP 1 28 Jul 23:46:52 23:47:30 10° 88° (E) 23:48:07 437.405
M-CUBED/EXP-1 PRIME 28 Jul 23:49:18 23:49:52 10° 268° (W) 23:50:27 437.505
AIST 1 28 Jul 23:57:10 00:00:02 17° 68° (ENE) 00:02:54
ISS 28 Jul 23:59:39 00:02:32 28° 349° (N) 00:05:25 145.825
UNISAT 6 29 Jul 00:02:01 00:06:41 85° 288° (WNW) 00:11:13 437.425
QB50P2 29 Jul 00:06:10 00:09:12 19° 92° (E) 00:12:13 145.880/145.840
POLYITAN 1 29 Jul 00:08:46 00:11:52 19° 92° (E) 00:14:56 437.675
SPROUT 29 Jul 00:14:27 00:18:18 34° 69° (ENE) 00:22:11 437.525
ESTCUBE 1 29 Jul 00:22:29 00:26:54 57° 260° (W) 00:31:20 437.505/2401.250
Cosmos 2491 29 Jul 00:23:27 00:30:22 26° 298° (WNW) 00:37:19 435.465 / 435.565
CUBEBUG 1 29 Jul 00:28:02 00:32:20 73° 257° (WSW) 00:36:41 437.445
VELOX 1 29 Jul 00:31:28 00:35:51 76° 258° (WSW) 00:40:16 145.980
ANTELSAT 29 Jul 00:40:45 00:45:01 36° 291° (WNW) 00:49:10 437.575/2403.000
NANOSAT C BR1 29 Jul 00:49:26 00:53:36 47° 99° (E) 00:57:43 145.865
DUCHIFAT 1 29 Jul 00:52:50 00:56:59 48° 99° (E) 01:01:06 145.980
BUGSAT 1 29 Jul 01:00:12 01:03:50 26° 95° (E) 01:07:25 437.445
TISAT 1 29 Jul 01:03:32 01:07:08 28° 67° (ENE) 01:10:46 437.305
50 SAT 29 Jul 01:06:30 01:09:33 25° 264° (W) 01:12:37 437.505
GONETS M04 29 Jul 01:07:42 01:13:08 17° 56° (NE) 01:18:33
DX 1 29 Jul 01:10:10 01:14:14 39° 262° (W) 01:18:19 434.975-435.025
QB50P1 29 Jul 01:12:52 01:17:11 89° 106° (ESE) 01:21:28 145.935-145.965
AISAT 29 Jul 01:17:33 01:21:10 25° 265° (W) 01:24:48 437.250
POPSAT HIP 1 29 Jul 01:19:31 01:23:50 79° 285° (WNW) 01:28:06 437.405
UKube-1 29 Jul 01:20:23 01:24:24 38° 262° (W) 01:28:27 .
TIGRISAT 29 Jul 01:22:54 01:25:50 17° 299° (WNW) 01:28:44 435.000
AIST 1 29 Jul 01:33:44 01:37:56 48° 266° (W) 01:42:07
ISS 29 Jul 01:36:44 01:39:36 27° 10° (N) 01:42:28 145.825
QB50P2 29 Jul 01:41:08 01:45:13 43° 289° (WNW) 01:49:16 145.880/145.840
UNISAT 6 29 Jul 01:41:09 01:42:36 11° 303° (WNW) 01:44:03 437.425
JAS-2 29 Jul 01:41:25 01:46:37 51° 100° (E) 01:52:13 435.910
POLYITAN 1 29 Jul 01:43:47 01:47:52 42° 289° (WNW) 01:51:54 437.675
Oscar 19 29 Jul 01:46:05 01:49:13 16° 90° (E) 01:52:21 437.125/150
SPROUT 29 Jul 01:50:50 01:54:18 24° 266° (W) 01:57:49 437.525
SWISSCUBE 29 Jul 01:55:56 01:59:51 26° 64° (ENE) 02:03:47 437.505
BEESAT 29 Jul 02:16:34 02:20:55 36° 67° (ENE) 02:25:16 436.000
BEESAT 3 29 Jul 02:17:38 02:20:40 20° 40° (NE) 02:23:39 437.485
NANOSAT C BR1 29 Jul 02:26:02 02:28:59 18° 297° (WNW) 02:31:56 145.865
Cosmos 2499 29 Jul 02:27:21 02:34:17 32° 67° (ENE) 02:40:46 435.465 / 435.565
BEESAT 2 29 Jul 02:27:47 02:30:21 16° 37° (NE) 02:32:54 435.950
DUCHIFAT 1 29 Jul 02:29:25 02:32:19 18° 297° (WNW) 02:35:13 145.980
BUGSAT 1 29 Jul 02:35:26 02:39:11 30° 292° (WNW) 02:42:55 437.445
TISAT 1 29 Jul 02:39:07 02:42:44 28° 264° (W) 02:46:24 437.305
ITUPSAT 1 29 Jul 02:40:31 02:45:14 58° 72° (ENE) 02:49:58 437.325
PCSat 29 Jul 02:45:49 02:48:59 15° 33° (NNE) 02:52:09 145.827
QB50P1 29 Jul 02:51:16 02:52:16 11° 302° (WNW) 02:53:17 145.935-145.965
GONETS M04 29 Jul 03:02:54 03:11:45 73° 80° (E) 03:20:34
ISS 29 Jul 03:13:06 03:16:22 81° 29° (NNE) 03:19:38 145.825
Gurwin Techsat 1B 29 Jul 03:20:00 03:25:12 52° 100° (E) 03:30:22 435.225
Oscar 19 29 Jul 03:23:54 03:29:03 70° 288° (WNW) 03:34:12 437.125/150
ITAMSAT 1 29 Jul 03:24:12 03:27:52 19° 92° (E) 03:31:30 435.822/435.867
JAS-2 29 Jul 03:27:20 03:31:29 24° 297° (WNW) 03:35:51 435.910
KKS-1 29 Jul 03:29:47 03:33:19 24° 65° (ENE) 03:36:53 437.445
SWISSCUBE 29 Jul 03:32:58 03:37:27 40° 262° (W) 03:41:58 437.505
DANDE 29 Jul 03:49:18 03:51:42 14° 92° (E) 03:53:50 436.750
AO-7 29 Jul 03:53:17 03:59:18 21° 90° (E) 04:05:16 29.400- 29.500
BEESAT 29 Jul 03:54:39 03:58:44 28° 265° (W) 04:02:51 436.000
BEESAT 3 29 Jul 03:54:45 03:58:38 54° 239° (WSW) 04:02:29 437.485
STARS 29 Jul 04:02:58 04:06:36 26° 66° (ENE) 04:10:18 437.465
BEESAT 2 29 Jul 04:04:41 04:08:41 79° 237° (WSW) 04:12:41 435.950
MOZHAYETS 4 29 Jul 04:17:09 04:21:45 72° 75° (ENE) 04:26:22
Cosmos 2499 29 Jul 04:20:15 04:27:48 53° 270° (W) 04:34:49 435.465 / 435.565
ITUPSAT 1 29 Jul 04:20:19 04:23:26 17° 269° (W) 04:26:34 437.325
PCSat 29 Jul 04:28:05 04:33:30 63° 55° (NE) 04:38:52 145.827
AIST 2 29 Jul 04:44:28 04:47:37 20° 39° (NE) 04:50:45 435.215
CUSAT 1 29 Jul 04:49:03 04:52:44 46° 282° (WNW) 04:55:41 437.405
ISS 29 Jul 04:50:25 04:52:25 15° 226° (SW) 04:54:26 145.825
Gurwin Techsat 1B 29 Jul 05:00:37 05:04:49 24° 298° (WNW) 05:09:00 435.225
GONETS M04 29 Jul 05:00:51 05:07:42 26° 280° (W) 05:14:34
ITAMSAT 1 29 Jul 05:02:37 05:07:44 59° 289° (WNW) 05:12:48 435.822/435.867
KKS-1 29 Jul 05:05:33 05:09:41 38° 262° (W) 05:13:52 437.445
Oscar 19 29 Jul 05:06:04 05:07:27 11° 306° (NW) 05:08:49 437.125/150
RS-15 29 Jul 05:18:20 05:24:05 15° 93° (E) 05:29:56 29.354- 29.394
DANDE 29 Jul 05:29:12 05:34:21 58° 281° (W) 05:38:13 436.750
STARS 29 Jul 05:38:52 05:42:51 33° 263° (W) 05:46:52 437.465
CUBESAT XI-V 29 Jul 05:42:00 05:46:33 68° 75° (ENE) 05:51:09 437.345
AO-7 29 Jul 05:44:40 05:53:05 87° 291° (WNW) 06:01:25 29.400- 29.500
MOZHAYETS 4 29 Jul 05:57:16 05:59:25 13° 271° (W) 06:01:34
BRITE-PL 29 Jul 06:00:39 06:02:41 12° 89° (E) 06:04:46 437.365/2234.400
PCSat 29 Jul 06:12:26 06:16:24 21° 253° (WSW) 06:20:21 145.827
HORYU 2 29 Jul 06:18:09 06:22:33 53° 100° (E) 06:26:54 437.375
AIST 2 29 Jul 06:22:20 06:26:28 61° 239° (WSW) 06:30:34 435.215
O/OREOS (USA 219) 29 Jul 06:24:53 06:29:20 53° 62° (ENE) 06:33:48 437.305
STRAND 1 29 Jul 06:24:58 06:28:10 17° 59° (ENE) 06:31:23 437.568
Cubesat XI-IV 29 Jul 06:34:28 06:37:26 15° 89° (E) 06:40:22 437.490
GOMX 1 29 Jul 06:51:08 06:54:47 19° 91° (E) 06:58:32 467.674
LilacSat-2 29 Jul 06:52:34 06:55:09 17° 92° (E) 06:57:45 437.200
CUTE-I 29 Jul 06:56:29 07:00:44 24° 93° (E) 07:04:58 437.470
NOAA 15 29 Jul 07:09:18 07:14:15 39° 98° (E) 07:19:10 137.62
CUBESAT XI-V 29 Jul 07:22:06 07:24:25 14° 271° (W) 07:26:44 437.345
RS-15 29 Jul 07:22:36 07:33:52 66° 116° (ESE) 07:45:46 29.354- 29.394
BRITE-PL 29 Jul 07:36:47 07:41:39 85° 284° (WNW) 07:46:55 437.365/2234.400
AO-7 29 Jul 07:38:35 07:44:48 24° 311° (NW) 07:50:59 29.400- 29.500
NOAA 18 29 Jul 07:49:42 07:55:15 65° 102° (ESE) 08:00:43 137.9125
HORYU 2 29 Jul 07:55:41 07:58:43 18° 298° (WNW) 08:01:44 437.375
STRAND 1 29 Jul 08:01:36 08:06:45 75° 256° (WSW) 08:11:55 437.568
O/OREOS (USA 219) 29 Jul 08:05:21 08:08:19 17° 260° (W) 08:11:18 437.305
CINEMA 3 29 Jul 08:08:00 08:10:52 15° 88° (E) 08:13:44 145.822/145.860
DOVE 4 29 Jul 08:10:21 08:15:23 49° 99° (E) 08:20:31 437.250
Cubesat XI-IV 29 Jul 08:12:45 08:18:08 78° 286° (WNW) 08:23:27 437.490
YUBILEINY 29 Jul 08:14:06 08:15:15 10° 69° (ENE) 08:16:24 435.215
SO-50 29 Jul 08:21:47 08:26:29 50° 120° (ESE) 08:31:10 436.795
LilacSat-2 29 Jul 08:26:01 08:29:38 38° 289° (WNW) 08:33:12 437.200
GOMX 1 29 Jul 08:28:10 08:33:10 60° 287° (WNW) 08:38:26 467.674
Cosmos 2491 29 Jul 08:31:47 08:40:04 43° 71° (ENE) 08:48:19 435.465 / 435.565
CUTE-I 29 Jul 08:35:54 08:41:03 50° 290° (WNW) 08:46:09 437.470
CANX-2 29 Jul 08:48:14 08:51:54 28° 95° (E) 08:55:31 2200.000
NOAA 15 29 Jul 08:49:21 08:53:53 30° 296° (WNW) 08:58:25 137.62
HO-68 29 Jul 08:50:54 08:57:26 36° 96° (E) 09:03:56 435.675
CUBEBUG 2 29 Jul 09:00:47 09:03:20 14° 88° (E) 09:05:51 437.445
CUTE 1.7 + AOD 2 29 Jul 09:01:06 09:04:57 33° 97° (E) 09:08:45 437.475
PRISM 29 Jul 09:15:33 09:19:38 89° 265° (W) 09:23:43 437.425
BRITE-PL 29 Jul 09:17:32 09:19:31 12° 300° (WNW) 09:21:33 437.365/2234.400
UNISAT 6 29 Jul 09:28:20 09:30:44 14° 59° (ENE) 09:33:10 437.425
NOAA 18 29 Jul 09:31:20 09:35:24 21° 301° (WNW) 09:39:26 137.9125
RS-15 29 Jul 09:35:47 09:47:00 49° 323° (NW) 09:58:49 29.354- 29.394
SEEDS 29 Jul 09:36:01 09:40:08 58° 100° (E) 09:44:14 437.485
CINEMA 3 29 Jul 09:43:29 09:48:31 72° 286° (WNW) 09:53:28 145.822/145.860
COMPASS 1 29 Jul 09:43:40 09:47:41 49° 99° (E) 09:51:41 437.405
DOVE 4 29 Jul 09:48:39 09:52:47 25° 295° (WNW) 09:57:00 437.250
Cubesat XI-IV 29 Jul 09:55:00 09:57:19 13° 305° (NW) 09:59:37 437.490
YUBILEINY 29 Jul 10:01:26 10:09:55 57° 90° (E) 10:18:29 435.215
FUNcube-1 29 Jul 10:02:39 10:06:21 25° 93° (E) 10:09:56 145.935
SO-50 29 Jul 10:02:58 10:07:12 29° 319° (NW) 10:11:24 436.795
ANTELSAT 29 Jul 10:04:45 10:08:46 29° 67° (ENE) 10:12:50 437.575/2403.000
ZACube-1 29 Jul 10:04:45 10:08:36 28° 94° (E) 10:12:22 437.345
UWE-3 29 Jul 10:08:55 10:13:23 46° 98° (E) 10:17:42 435.000/436.395/437.385
AAUSAT CUBESAT 2 29 Jul 10:09:41 10:13:49 77° 103° (ESE) 10:17:55 437.432
DELFI C3 29 Jul 10:14:52 10:17:05 14° 91° (E) 10:19:17 145.870
Cosmos 2504 29 Jul 10:21:04 10:28:11 28° 81° (E) 10:35:13 435.465 / 435.565
CANX-2 29 Jul 10:24:07 10:27:42 28° 292° (WNW) 10:31:16 2200.000
Cosmos 2491 29 Jul 10:28:46 10:36:57 46° 272° (W) 10:45:08 435.465 / 435.565
CUBEBUG 2 29 Jul 10:35:44 10:40:26 66° 286° (WNW) 10:45:00 437.445
CUTE 1.7 + AOD 2 29 Jul 10:37:16 10:40:38 24° 294° (WNW) 10:43:58 437.475
HO-68 29 Jul 10:38:27 10:45:20 50° 295° (WNW) 10:52:10 435.675
POPSAT HIP 1 29 Jul 10:41:14 10:42:38 11° 59° (ENE) 10:44:01 437.405
Oscar 11 29 Jul 10:41:33 10:45:52 68° 102° (ESE) 10:50:08 145.826/435.025
TIGRISAT 29 Jul 10:45:01 10:49:38 67° 74° (ENE) 10:54:19 435.000
HUMSAT D 29 Jul 10:59:41 11:03:01 23° 93° (E) 11:06:19 437.325/437.525
QB50P2 29 Jul 11:00:53 11:03:55 19° 64° (ENE) 11:06:57 145.880/145.840
UNISAT 6 29 Jul 11:02:09 11:06:48 79° 256° (WSW) 11:11:33 437.425
POLYITAN 1 29 Jul 11:03:28 11:06:32 20° 64° (ENE) 11:09:38 437.675
SEEDS 29 Jul 11:13:04 11:15:23 15° 298° (WNW) 11:17:42 437.485
COMPASS 1 29 Jul 11:20:15 11:22:53 17° 297° (WNW) 11:25:30 437.405
M-CUBED/EXP-1 PRIME 29 Jul 11:22:10 11:26:41 43° 104° (ESE) 11:31:09 437.505
CINEMA 3 29 Jul 11:23:26 11:24:43 11° 304° (NW) 11:26:01 145.822/145.860
FUNcube-1 29 Jul 11:38:35 11:42:39 35° 291° (WNW) 11:46:37 145.935
ZACube-1 29 Jul 11:40:54 11:44:53 31° 292° (WNW) 11:48:47 437.345
ANTELSAT 29 Jul 11:41:11 11:45:22 33° 264° (W) 11:49:39 437.575/2403.000
NANOSAT C BR1 29 Jul 11:43:14 11:47:16 44° 71° (ENE) 11:51:21 145.865
UWE-3 29 Jul 11:46:05 11:49:30 21° 296° (WNW) 11:52:51 435.000/436.395/437.385
AUBIESAT-1 29 Jul 11:46:11 11:50:50 62° 106° (ESE) 11:55:23 437.475
DUCHIFAT 1 29 Jul 11:46:21 11:50:23 45° 71° (ENE) 11:54:27 145.980
AAUSAT CUBESAT 2 29 Jul 11:47:22 11:48:42 11° 300° (WNW) 11:50:02 437.432
DELFI C3 29 Jul 11:48:24 11:52:13 47° 288° (WNW) 11:55:59 145.870
BUGSAT 1 29 Jul 11:52:00 11:55:18 24° 66° (ENE) 11:58:40 437.445
RS-15 29 Jul 11:53:15 12:03:25 30° 356° (N) 12:13:50 29.354- 29.394
JAS-2 29 Jul 11:56:49 12:01:36 28° 65° (ENE) 12:06:04 435.910
YUBILEINY 29 Jul 11:59:14 12:07:07 36° 292° (WNW) 12:15:06 435.215
QB50P1 29 Jul 12:06:48 12:11:03 85° 74° (ENE) 12:15:21 145.935-145.965
Cosmos 2504 29 Jul 12:11:57 12:20:49 72° 281° (W) 12:29:37 435.465 / 435.565
ESTCUBE 1 29 Jul 12:13:15 12:17:00 25° 95° (E) 12:20:43 437.505/2401.250
POPSAT HIP 1 29 Jul 12:13:29 12:17:45 83° 260° (W) 12:22:04 437.405
CUBEBUG 1 29 Jul 12:15:24 12:18:27 18° 92° (E) 12:21:30 437.445
Oscar 11 29 Jul 12:19:17 12:21:28 14° 299° (WNW) 12:23:39 145.826/435.025
VELOX 1 29 Jul 12:20:28 12:23:28 18° 92° (E) 12:26:28 145.980
TIGRISAT 29 Jul 12:24:16 12:26:47 14° 271° (W) 12:29:19 435.000
HO-68 29 Jul 12:29:12 12:31:23 12° 316° (NW) 12:33:34 435.675
50 SAT 29 Jul 12:32:58 12:35:46 21° 95° (E) 12:38:34 437.505
HUMSAT D 29 Jul 12:34:56 12:38:43 33° 291° (WNW) 12:42:26 437.325/437.525
QB50P2 29 Jul 12:35:19 12:39:24 45° 261° (W) 12:43:32 145.880/145.840
POLYITAN 1 29 Jul 12:37:57 12:42:02 44° 261° (W) 12:46:10 437.675
DX 1 29 Jul 12:56:13 13:00:03 29° 96° (E) 13:03:52 434.975-435.025
M-CUBED/EXP-1 PRIME 29 Jul 12:57:05 13:00:57 26° 300° (WNW) 13:04:48 437.505
Oscar 19 29 Jul 13:04:26 13:08:48 29° 65° (ENE) 13:13:12 437.125/150
AISAT 29 Jul 13:04:35 13:08:57 52° 100° (E) 13:13:19 437.250
UKube-1 29 Jul 13:05:22 13:09:09 28° 96° (E) 13:12:54 .
Gurwin Techsat 1B 29 Jul 13:06:03 13:09:07 16° 57° (ENE) 13:12:13 435.225
AO-7 29 Jul 13:09:45 13:11:10 10° 33° (NNE) 13:12:35 29.400- 29.500
NANOSAT C BR1 29 Jul 13:20:19 13:23:13 18° 268° (W) 13:26:09 145.865
AUBIESAT-1 29 Jul 13:21:36 13:24:49 19° 303° (WNW) 13:28:01 437.475
DUCHIFAT 1 29 Jul 13:23:26 13:26:18 18° 268° (W) 13:29:12 145.980
BUGSAT 1 29 Jul 13:26:51 13:30:32 32° 263° (W) 13:34:18 437.445
SPROUT 29 Jul 13:33:42 13:37:55 49° 100° (E) 13:42:06 437.525
JAS-2 29 Jul 13:40:56 13:46:34 44° 261° (W) 13:51:44 435.910
ESTCUBE 1 29 Jul 13:49:47 13:53:51 34° 292° (WNW) 13:57:55 437.505/2401.250
CUBEBUG 1 29 Jul 13:50:45 13:54:59 47° 289° (WNW) 13:59:13 437.445
VELOX 1 29 Jul 13:55:54 14:00:12 49° 289° (WNW) 14:04:30 145.980
AO-85 29 Jul 13:56:20 14:01:30 49° 119° (ESE) 14:06:26 145.980
AIST 1 29 Jul 14:04:36 14:08:51 88° 94° (E) 14:13:09
50 SAT 29 Jul 14:06:20 14:09:24 26° 291° (WNW) 14:12:26 437.505
RS-15 29 Jul 14:08:56 14:20:21 41° 30° (NNE) 14:31:48 29.354- 29.394
Cosmos 2504 29 Jul 14:10:24 14:15:54 18° 304° (WNW) 14:21:23 435.465 / 435.565
GONETS M04 29 Jul 14:14:33 14:19:19 16° 74° (ENE) 14:24:07
TISAT 1 29 Jul 14:20:21 14:24:20 37° 98° (E) 14:28:17 437.305
DX 1 29 Jul 14:32:24 14:36:11 29° 293° (WNW) 14:39:58 434.975-435.025
ITUPSAT 1 29 Jul 14:40:55 14:42:58 13° 89° (E) 14:45:00 437.325
UKube-1 29 Jul 14:41:24 14:45:09 29° 293° (WNW) 14:48:54 .
AISAT 29 Jul 14:42:00 14:45:04 18° 297° (WNW) 14:48:07 437.250
